Vorticity
4 3 3 4 2 0 1 3 6 5 14 6 7 8 3 5 6 12 5 5 4 5 5 1 1 2 4 6 5 6 5 5
3 3 3 2 4 2 0 1 6 4 10 13 7 8 3 6 4 11 3 5 4 4 5 3 1 1 4 6 4 6 4 3
7 3 3 3 3 2 2 0 2 7 4 14 9 7 6 2 3 5 6 6 6 4 3 1 1 2 5 6 3 5 3 3
2 6 4 4 3 2 1 2 0 4 5 5 14 8 7 6 2 1 3 4 3 2 1 1 3 5 5 7 3 6 4 4
3 4 5 5 4 2 1 1 1 1 5 4 6 13 8 6 7 3 2 1 4 5 5 4 4 6 7 8 2 4 4 5
9 7 5 5 5 6 1 1 1 0 1 5 4 7 14 8 6 6 5 4 4 4 5 6 6 6 7 7 5 4 5 4
-0 14 8 5 6 4 4 2 2 0 0 1 4 5 7 13 9 5 5 7 7 7 7 8 8 6 6 6 5 6 5 4
-1 12 12 9 6 5 4 3 0 1 0 1 1 4 5 6 11 12 7 5 6 7 7 6 5 6 5 5 6 7 6 4
-0 1 4 -1 15 10 5 4 3 1 1 1 1 1 3 4 5 8 14 9 5 6 6 8 6 4 5 7 7 5 5 3
9 1 2 0 1 11 14 5 4 1 2 2 1 1 1 3 3 5 6 10 12 8 6 4 7 7 6 5 5 4 4 4
4 8 8 4 4 -0 4 12 5 2 1 1 1 1 1 0 2 3 4 4 7 10 14 6 3 5 6 5 5 4 4 5
2 3 5 9 7 5 0 4 17 7 3 2 1 1 1 1 0 2 2 3 3 5 5 14 15 5 5 5 5 5 6 5
3 3 1 3 8 8 4 -1 6 5 7 4 2 2 1 1 2 1 1 -0 2 3 4 5 8 13 10 8 6 7 7 7
1 1 2 2 1 10 7 4 1 6 12 15 -0 2 2 1 1 1 2 0 1 2 1 3 4 6 11 9 7 8 8 8
4 7 5 2 2 2 11 4 6 1 8 -8 23 1 0 1 1 1 1 2 2 2 1 1 1 4 4 9 12 5 6 8
6 6 5 9 3 3 0 10 4 3 3 2 2 12 3 1 1 1 1 1 2 2 1 1 1 1 3 2 6 10 5 4
29 17 12 6 8 5 2 -1 9 6 -0 10 -24 -3 22 -1 2 1 1 1 2 2 2 1 3 2 1 2 2 5 9 6
26 32 31 18 11 9 2 1 1 6 2 4 13 -39 12 14 12 -0 -1 3 -0 2 3 2 4 2 3 2 1 2 5 7
23 26 30 31 18 23 12 -1 -1 -0 6 2 2 6 3 43 -3 -2 2 1 2 -1 4 3 0 3 2 3 2 2 3 5
34 29 17 44 14 21 29 15 7 4 6 3 2 3 -0 18 -17 22 1 6 1 1 -2 -1 6 1 4 4 4 1 2 3
Height
5900 5901 5902 5903 5903 5903 5903 5902 5902 5901 5902 5901 5901 5900 5900 5901 5901 5903 5905 5907 5908 5910 5911 5912 5912 5912 5911 5911 5910 5910 5910 5909
5897 5899 5900 5901 5902 5902 5902 5903 5902 5901 5902 5902 5902 5903 5902 5904 5903 5904 5906 5908 5909 5910 5911 5912 5912 5912 5912 5911 5911 5910 5910 5910
5896 5897 5898 5899 5900 5900 5900 5901 5902 5902 5902 5902 5903 5904 5904 5904 5905 5906 5907 5908 5909 5910 5911 5912 5912 5912 5911 5911 5911 5911 5910 5909
5891 5893 5894 5895 5897 5899 5899 5899 5901 5902 5902 5902 5902 5904 5905 5906 5905 5906 5908 5908 5909 5910 5910 5911 5911 5911 5910 5911 5911 5911 5910 5909
5886 5888 5889 5891 5893 5895 5896 5897 5899 5900 5901 5902 5902 5902 5904 5905 5906 5906 5906 5908 5909 5910 5910 5910 5910 5911 5911 5910 5910 5909 5909 5909
5881 5883 5886 5886 5888 5891 5893 5894 5895 5897 5899 5900 5901 5901 5902 5903 5905 5906 5906 5906 5907 5908 5909 5909 5910 5910 5910 5910 5909 5909 5908 5908
5876 5877 5880 5883 5884 5886 5889 5890 5891 5893 5896 5897 5898 5899 5900 5901 5903 5904 5905 5905 5905 5905 5906 5907 5909 5909 5909 5909 5909 5908 5908 5908
5868 5871 5873 5876 5879 5881 5883 5886 5887 5887 5890 5893 5895 5896 5897 5898 5899 5901 5903 5903 5904 5904 5904 5904 5906 5907 5908 5907 5907 5907 5907 5906
5861 5863 5866 5869 5872 5876 5877 5880 5882 5883 5884 5887 5890 5892 5894 5895 5896 5897 5899 5901 5902 5902 5902 5902 5903 5904 5906 5906 5905 5905 5905 5905
5851 5853 5856 5860 5863 5866 5870 5873 5874 5877 5878 5881 5883 5887 5889 5891 5892 5893 5894 5896 5898 5900 5901 5900 5900 5901 5902 5903 5903 5903 5903 5903
5838 5842 5844 5849 5854 5857 5861 5866 5868 5870 5872 5874 5877 5879 5881 5884 5886 5887 5889 5891 5893 5895 5897 5898 5898 5898 5899 5899 5900 5900 5900 5900
5827 5830 5831 5836 5842 5846 5851 5856 5861 5863 5866 5868 5868 5871 5873 5876 5879 5881 5883 5886 5888 5889 5891 5894 5895 5895 5895 5896 5896 5897 5897 5896
5813 5816 5821 5823 5829 5835 5840 5845 5850 5852 5855 5859 5861 5864 5866 5870 5871 5874 5877 5880 5881 5883 5884 5887 5890 5891 5892 5892 5892 5893 5893 5893
5794 5800 5805 5810 5813 5820 5827 5833 5836 5840 5842 5845 5851 5855 5858 5861 5865 5866 5868 5872 5874 5875 5877 5880 5882 5886 5888 5888 5889 5889 5889 5890
5774 5778 5787 5792 5798 5804 5811 5818 5822 5827 5831 5834 5837 5844 5850 5852 5856 5859 5860 5863 5867 5867 5869 5871 5874 5877 5881 5883 5885 5886 5884 5886
5755 5760 5766 5773 5780 5787 5793 5801 5806 5813 5819 5827 5828 5831 5836 5841 5844 5847 5851 5853 5857 5861 5861 5864 5864 5868 5871 5875 5878 5880 5881 5881
5734 5739 5745 5752 5761 5768 5776 5782 5789 5797 5805 5811 5812 5805 5821 5827 5832 5836 5839 5843 5847 5851 5854 5856 5858 5858 5862 5865 5868 5872 5875 5876
5713 5718 5724 5730 5739 5749 5756 5764 5771 5780 5787 5794 5799 5793 5792 5803 5813 5822 5829 5833 5837 5841 5845 5846 5850 5850 5853 5854 5859 5863 5867 5869
5698 5702 5706 5712 5719 5728 5738 5744 5752 5760 5769 5777 5782 5785 5785 5791 5795 5801 5810 5818 5824 5829 5831 5836 5840 5842 5844 5847 5848 5853 5856 5859
5688 5688 5693 5697 5702 5709 5719 5727 5733 5742 5750 5759 5767 5771 5772 5776 5783 5789 5793 5798 5805 5811 5818 5823 5826 5830 5834 5837 5840 5843 5845 5850